KOREASAT 7

Last updated on Thu Oct 16 2025 00:02:48 GMT+0000 (Coordinated Universal Time)

1 42691U 17023A 25288.64074293 -.00000376 00000+0 00000+0 0 9990 2 42691 0.0403 12.8575 0001577 194.6419 163.4999 1.00270246 30919
UTC large
Height (km)
Speed (km/s)
/
Latitude / Longitude
Inclination (degrees)
Orbital Period (minutes)
Azimuth
Elevation
Range (km)
Doppler Factor

Next 0 passes for location: London (51.5072 / 0.1276)

Sorry there are no passes over London.